Le nostre stazioni meteo in Italia

Pubblicità
Il mio iltempo24.it
Venezia Lido, Italia (16101): Temperatura & dewpoint: 15.09.2018 05:00:00 - 21.09.2018 05:00:00 (CEST)Venezia Lido, Italia (16101): velocità del vento: 15.09.2018 05:00:00 - 21.09.2018 05:00:00 (CEST)Venezia Lido, Italia (16101): direzione del vento: 15.09.2018 05:00:00 - 21.09.2018 05:00:00 (CEST)Venezia Lido, Italia (16101): reduced air pressure: 15.09.2018 05:00:00 - 21.09.2018 05:00:00 (CEST)Venezia Lido, Italia (16101): precipitazioni: 15.09.2018 05:00:00 - 21.09.2018 05:00:00 (CEST)
Data & Tempo tt [°C] td [°C] ff [km/h] ff [kn] dd ppp [hPa] rr [mm]
21.09.2018 05:00:00 - - - - - - -
21.09.2018 04:00:00 19,8 17,7 0 0 N 1016,4 -
21.09.2018 03:00:00 20,6 18,3 0 0 N 1016,7 -
21.09.2018 02:00:00 21,0 19,2 2 1 N 1017,0 0,0
21.09.2018 01:00:00 20,9 18,4 0 0 N 1017,3 -
21.09.2018 00:00:00 20,1 17,6 0 0 N 1017,5 -
20.09.2018 23:00:00 20,1 17,1 0 0 N 1017,5 -
20.09.2018 22:00:00 20,4 17,2 0 0 N 1017,4 -
20.09.2018 21:00:00 20,9 16,4 0 0 N 1017,5 -
20.09.2018 20:00:00 22,6 16,3 0 0 N 1017,3 0,0
20.09.2018 19:00:00 25,4 17,5 0 0 N 1017,2 -
20.09.2018 18:00:00 27,0 17,1 5 3 SO 1017,4 -
20.09.2018 17:00:00 27,4 18,3 8 4 SSO 1017,6 -
20.09.2018 16:00:00 27,8 17,6 8 4 S 1018,0 -
20.09.2018 15:00:00 27,9 20,4 11 6 SE 1018,4 -
20.09.2018 14:00:00 27,6 19,9 13 7 SE 1019,0 0,0
20.09.2018 13:00:00 27,8 19,0 13 7 ESE 1019,3 -
20.09.2018 12:00:00 27,3 19,1 9 5 E 1019,6 -
20.09.2018 11:00:00 26,1 19,2 9 5 E 1019,9 -
20.09.2018 10:00:00 23,2 18,7 4 2 NE 1019,7 -
20.09.2018 09:00:00 21,3 18,0 4 2 NE 1019,6 -
20.09.2018 08:00:00 20,3 18,2 0 0 N 1019,3 0,0
20.09.2018 07:00:00 19,7 18,0 0 0 N 1019,2 -
20.09.2018 06:00:00 19,7 18,0 0 0 N 1019,2 -
20.09.2018 05:00:00 19,9 18,1 0 0 N 1019,2 -
20.09.2018 04:00:00 20,3 18,5 0 0 N 1019,4 -
20.09.2018 03:00:00 21,3 19,5 0 0 N 1019,5 -
20.09.2018 02:00:00 21,6 19,8 0 0 N 1019,9 0,0
20.09.2018 01:00:00 22,1 20,3 2 1 ENE 1020,0 -
20.09.2018 00:00:00 21,9 20,1 0 0 N 1020,3 -
19.09.2018 23:00:00 21,3 19,2 0 0 N 1020,2 -
19.09.2018 22:00:00 21,7 18,8 0 0 N 1020,0 -
19.09.2018 21:00:00 23,3 19,6 0 0 N 1019,8 -
19.09.2018 20:00:00 24,1 20,2 5 3 S 1019,3 0,0
19.09.2018 19:00:00 24,7 20,3 4 2 S 1018,9 -
19.09.2018 18:00:00 25,8 20,8 5 3 S 1018,7 -
19.09.2018 17:00:00 26,3 21,0 9 5 SSO 1018,9 -
19.09.2018 16:00:00 26,0 21,8 11 6 SSO 1019,4 -
19.09.2018 15:00:00 26,1 21,5 8 4 SSO 1019,5 -
19.09.2018 14:00:00 26,2 21,8 8 4 SSO 1019,9 0,0
19.09.2018 13:00:00 25,7 21,7 5 3 S 1020,1 -
19.09.2018 12:00:00 25,7 22,1 0 0 N 1020,3 -
19.09.2018 11:00:00 23,4 21,6 2 1 NE 1020,4 -
19.09.2018 10:00:00 20,3 18,7 0 0 N 1020,5 -
19.09.2018 09:00:00 19,7 18,1 0 0 N 1020,2 -
19.09.2018 08:00:00 19,6 18,0 0 0 N 1019,7 0,0
19.09.2018 07:00:00 18,7 17,0 0 0 N 1019,2 -
19.09.2018 06:00:00 19,0 17,3 0 0 N 1019,0 -
19.09.2018 05:00:00 20,3 18,5 0 0 N 1019,0 -
19.09.2018 04:00:00 19,8 18,1 0 0 N 1019,2 -
19.09.2018 03:00:00 20,5 18,7 0 0 N 1019,4 -
19.09.2018 02:00:00 20,3 18,5 0 0 N 1019,5 0,0
19.09.2018 01:00:00 21,5 19,7 0 0 N 1019,4 -
19.09.2018 00:00:00 22,0 20,0 0 0 N 1019,5 -
18.09.2018 23:00:00 23,0 21,0 0 0 N 1019,5 -
18.09.2018 22:00:00 23,5 21,5 2 1 ONO 1019,4 -
18.09.2018 21:00:00 23,8 21,3 4 2 OSO 1019,0 -
18.09.2018 20:00:00 24,2 21,1 8 4 OSO 1018,7 0,0
18.09.2018 19:00:00 24,4 21,5 11 6 SO 1018,7 -
18.09.2018 18:00:00 24,8 21,5 8 4 SSO 1018,5 -
18.09.2018 17:00:00 25,8 21,4 9 5 S 1018,5 -
18.09.2018 16:00:00 25,7 21,5 9 5 S 1018,7 -
18.09.2018 15:00:00 25,5 21,7 13 7 S 1019,3 -
18.09.2018 14:00:00 25,4 21,6 9 5 S 1019,7 0,0
18.09.2018 13:00:00 25,4 21,8 8 4 S 1020,2 -
18.09.2018 12:00:00 24,8 21,3 8 4 SSO 1020,3 -
18.09.2018 11:00:00 23,8 20,9 2 1 NE 1020,3 -
18.09.2018 10:00:00 21,8 20,0 2 1 NE 1020,2 -
18.09.2018 09:00:00 20,4 18,8 0 0 N 1020,2 -
18.09.2018 08:00:00 19,5 17,9 0 0 N 1019,9 0,0
18.09.2018 07:00:00 19,3 17,7 0 0 N 1019,7 -
18.09.2018 06:00:00 20,2 18,6 0 0 N 1019,5 -
18.09.2018 05:00:00 20,1 18,3 0 0 N 1019,6 -
18.09.2018 04:00:00 19,6 17,9 0 0 N 1019,6 -
18.09.2018 03:00:00 19,4 17,7 0 0 N 1019,7 -
18.09.2018 02:00:00 20,0 18,2 0 0 N 1019,8 0,0
18.09.2018 01:00:00 20,9 18,6 0 0 N 1019,8 -
18.09.2018 00:00:00 22,3 19,6 0 0 N 1020,0 -
17.09.2018 23:00:00 23,2 20,3 2 1 ONO 1020,4 -
17.09.2018 22:00:00 23,7 21,0 4 2 O 1020,6 -
17.09.2018 21:00:00 23,7 20,8 4 2 SO 1020,4 -
17.09.2018 20:00:00 24,0 20,1 4 2 SO 1019,9 -
17.09.2018 19:00:00 24,9 19,9 8 4 SSO 1019,7 -
17.09.2018 18:00:00 26,0 19,8 8 4 SSO 1019,4 -
17.09.2018 17:00:00 26,0 19,1 5 3 S 1019,6 -
17.09.2018 16:00:00 25,9 18,5 4 2 S 1020,1 -
17.09.2018 15:00:00 26,6 20,8 5 3 S 1020,8 -
17.09.2018 14:00:00 26,1 20,1 8 4 S 1021,3 0,0
17.09.2018 13:00:00 26,1 20,6 4 2 S 1021,6 -
17.09.2018 12:00:00 25,8 21,2 2 1 E 1021,9 -
17.09.2018 11:00:00 24,2 20,7 4 2 E 1022,1 -
17.09.2018 10:00:00 21,6 19,8 2 1 ENE 1022,0 -
17.09.2018 09:00:00 19,2 17,6 0 0 N 1021,7 -
17.09.2018 08:00:00 18,9 17,3 2 1 NE 1021,4 0,0
17.09.2018 07:00:00 19,2 17,6 0 0 N 1021,2 -
17.09.2018 06:00:00 19,6 18,0 0 0 N 1021,0 -
17.09.2018 05:00:00 19,3 17,6 0 0 N 1020,9 -
17.09.2018 04:00:00 19,5 17,8 0 0 N 1021,0 -
17.09.2018 03:00:00 19,6 17,9 0 0 N 1021,2 -
17.09.2018 02:00:00 19,9 18,1 0 0 N 1021,4 0,0
17.09.2018 01:00:00 20,4 18,5 0 0 N 1021,7 -
17.09.2018 00:00:00 20,7 18,2 0 0 N 1021,7 -
16.09.2018 23:00:00 22,1 20,0 0 0 N 1022,1 -
16.09.2018 22:00:00 21,6 18,5 2 1 OSO 1021,9 -
16.09.2018 21:00:00 22,5 18,6 2 1 O 1021,6 -
16.09.2018 20:00:00 23,6 19,1 5 3 SO 1021,2 0,0
16.09.2018 19:00:00 24,5 18,6 9 5 SO 1021,1 -
16.09.2018 18:00:00 25,3 18,9 8 4 SSO 1021,0 -
16.09.2018 17:00:00 25,9 19,2 9 5 S 1021,0 -
16.09.2018 16:00:00 26,2 20,0 9 5 SSO 1021,4 -
16.09.2018 15:00:00 26,4 19,7 9 5 SSO 1021,9 -
16.09.2018 14:00:00 27,3 18,8 5 3 SSE 1022,3 0,0
16.09.2018 13:00:00 26,6 16,8 4 2 ESE 1022,8 -
16.09.2018 12:00:00 25,3 17,2 5 3 ENE 1023,2 -
16.09.2018 11:00:00 24,6 18,0 5 3 E 1023,1 -
16.09.2018 10:00:00 23,2 18,2 5 3 E 1022,9 -
16.09.2018 09:00:00 21,2 18,9 8 4 ENE 1022,7 -
16.09.2018 08:00:00 19,7 18,0 0 0 N 1022,4 0,0
16.09.2018 07:00:00 19,1 17,4 4 2 ENE 1021,9 -
16.09.2018 06:00:00 18,9 17,2 2 1 NE 1021,9 -
16.09.2018 05:00:00 19,2 17,5 4 2 NE 1021,9 -
16.09.2018 04:00:00 20,2 18,6 2 1 NE 1021,9 -
16.09.2018 03:00:00 19,7 18,0 0 0 N 1022,0 -
16.09.2018 02:00:00 20,6 19,0 0 0 N 1022,2 0,0
16.09.2018 01:00:00 21,1 19,5 2 1 ENE 1022,4 -
16.09.2018 00:00:00 20,1 18,3 0 0 N 1022,2 -
15.09.2018 23:00:00 20,5 18,7 0 0 N 1021,8 -
15.09.2018 22:00:00 20,5 18,6 0 0 N 1021,4 -
15.09.2018 21:00:00 20,9 18,4 0 0 N 1021,1 -
15.09.2018 20:00:00 22,5 19,2 0 0 N 1020,4 0,0
15.09.2018 19:00:00 24,0 20,5 2 1 SSO 1020,0 -
15.09.2018 18:00:00 24,7 20,7 8 4 SSO 1019,8 -
15.09.2018 17:00:00 25,3 20,0 8 4 S 1019,7 -
15.09.2018 16:00:00 25,8 20,8 8 4 S 1019,8 -
15.09.2018 15:00:00 25,8 20,5 9 5 S 1020,0 -
15.09.2018 14:00:00 26,0 18,6 11 6 E 1020,2 0,0
15.09.2018 13:00:00 24,9 19,7 8 4 E 1020,4 -
15.09.2018 12:00:00 23,0 19,3 0 0 N 1020,7 -
15.09.2018 11:00:00 21,3 19,5 0 0 N 1020,3 -
15.09.2018 10:00:00 20,5 18,7 0 0 N 1020,1 -
15.09.2018 09:00:00 19,3 17,6 0 0 N 1019,2 -
15.09.2018 08:00:00 18,8 17,1 0 0 N 1018,7 -
15.09.2018 07:00:00 19,1 17,4 2 1 N 1018,5 -
15.09.2018 06:00:00 19,7 18,0 9 5 ENE 1017,8 -
15.09.2018 05:00:00 19,1 17,5 16 9 E 1017,3 -

tt = Temperatura
td = dewpoint
ff = velocità del vento
dd = direzione del vento
ppp = reduced air pressure
rr = precipitazioni

Stazioni seguenti

WeatherPro
AMSI
MeteoEarth